This is the latest recevied weather packets stored in our database for station/object KF5JED-13. If no packets are shown the sender has not sent any weather packets the latest 10 day(s).
| Time | Temp. | Humidity | Pressure | Rain* | Wind** | Luminosity | Snow |
|---|---|---|---|---|---|---|---|
| 1777402057 | 24.44° C | 30% | 1014.3 hPa | 0 mm | - | 871 W/m² | - |
| 1777401753 | 23.89° C | 33% | 1014.6 hPa | 0 mm | - | 869 W/m² | - |
| 1777401447 | 22.78° C | 33% | 1014.6 hPa | 0 mm | - | 867 W/m² | - |
| 1777401143 | 22.78° C | 34% | 1014.8 hPa | 0 mm | - | 865 W/m² | - |
| 1777400839 | 22.22° C | 36% | 1014.7 hPa | 0 mm | - | 860 W/m² | - |
| 1777400535 | 22.22° C | 36% | 1014.7 hPa | 0 mm | - | 856 W/m² | - |
| 1777400233 | 22.78° C | 35% | 1014.7 hPa | 0 mm | - | 855 W/m² | - |
| 1777399929 | 22.22° C | 37% | 1014.9 hPa | 0 mm | - | 854 W/m² | - |
| 1777399626 | 22.22° C | 35% | 1014.9 hPa | 0 mm | - | 845 W/m² | - |
| 1777399323 | 22.78° C | 37% | 1015 hPa | 0 mm | - | 842 W/m² | - |
| 1777399021 | 22.22° C | 37% | 1015 hPa | 0 mm | - | 844 W/m² | - |
| 1777398717 | 21.67° C | 39% | 1015.1 hPa | 0 mm | - | 836 W/m² | - |
| 1777398414 | 21.67° C | 38% | 1015.2 hPa | 0 mm | - | 829 W/m² | - |
| 1777398110 | 21.67° C | 38% | 1015.1 hPa | 0 mm | - | 828 W/m² | - |
| 1777397808 | 21.11° C | 38% | 1015.2 hPa | 0 mm | - | 817 W/m² | - |
| 1777397503 | 21.67° C | 39% | 1015.5 hPa | 0 mm | - | 813 W/m² | - |
| 1777397199 | 21.67° C | 39% | 1015.5 hPa | 0 mm | - | 804 W/m² | - |
| 1777396897 | 20.56° C | 41% | 1015.5 hPa | 0 mm | - | 796 W/m² | - |
| 1777396592 | 20.56° C | 44% | 1015.3 hPa | 0 mm | - | 789 W/m² | - |
| 1777396290 | 20.56° C | 45% | 1015.3 hPa | 0 mm | - | 779 W/m² | - |
| 1777395987 | 20° C | 47% | 1015.3 hPa | 0 mm | - | 768 W/m² | - |
| 1777395681 | 20° C | 48% | 1015.3 hPa | 0 mm | - | 758 W/m² | - |
| 1777395378 | 20° C | 51% | 1015.3 hPa | 0 mm | - | 748 W/m² | - |
| 1777395076 | 19.44° C | 52% | 1015.3 hPa | 0 mm | - | 735 W/m² | - |
| 1777394773 | 18.89° C | 53% | 1015.3 hPa | 0 mm | - | 726 W/m² | - |
* Rain latest hour (hover to see other rain measurements)
** Current wind speed in m/s (hover to see current wind gust speed)